| time (UTC) | temp F | wind direction | speed MPH | gust MPH | rain 1hr in | rain 24hr in | rain mn in | humidity % | barometer mb |
| 20260903161552 | 60 | 210 | 0.0 | 5.0 | 0.00 | 0.00 | 0.00 | 83 | 1004.0 |
| 20260903160051 | 60 | 233 | 3.0 | 10.0 | 0.00 | 0.00 | 0.00 | 80 | 1004.2 |
| 20260903154557 | 61 | 205 | 3.0 | 8.0 | 0.00 | 0.00 | 0.00 | 77 | 1004.4 |
| 20260903153103 | 62 | 210 | 3.0 | 8.0 | 0.00 | 0.00 | 0.00 | 75 | 1004.6 |
| 20260903151547 | 62 | 210 | 3.0 | 5.0 | 0.00 | 0.00 | 0.00 | 70 | 1004.6 |
| 20260903150100 | 62 | 205 | 3.0 | 8.0 | 0.00 | 0.00 | 0.00 | 67 | 1004.7 |
| 20260903144545 | 62 | 205 | 2.0 | 6.0 | 0.00 | 0.00 | 0.00 | 64 | 1004.7 |
| 20260903143055 | 62 | 210 | 4.0 | 8.0 | 0.00 | 0.00 | 0.00 | 62 | 1004.8 |
| 20260903141545 | 63 | 227 | 2.0 | 5.0 | 0.00 | 0.00 | 0.00 | 61 | 1004.8 |
| 20260903140042 | 62 | 200 | 3.0 | 8.0 | 0.00 | 0.00 | 0.00 | 59 | 1004.8 |
| 20260903134540 | 63 | 205 | 3.0 | 8.0 | 0.00 | 0.00 | 0.00 | 60 | 1005.0 |
| 20260903133040 | 64 | 214 | 4.0 | 9.0 | 0.00 | 0.00 | 0.00 | 56 | 1004.9 |
| 20260903131538 | 65 | 218 | 3.0 | 8.0 | 0.00 | 0.00 | 0.00 | 56 | 1005.1 |
| 20260903130038 | 65 | 196 | 1.0 | 11.0 | 0.00 | 0.00 | 0.00 | 59 | 1005.2 |
| 20260903124536 | 65 | 220 | 2.0 | 10.0 | 0.00 | 0.00 | 0.00 | 58 | 1005.3 |
| 20260903123034 | 66 | 210 | 5.0 | 10.0 | 0.00 | 0.00 | 0.00 | 55 | 1005.4 |
| 20260903121533 | 65 | 235 | 3.0 | 9.0 | 0.00 | 0.00 | 0.00 | 54 | 1005.5 |
| 20260903120038 | 65 | 200 | 4.0 | 9.0 | 0.00 | 0.00 | 0.00 | 58 | 1005.5 |
| 20260903114531 | 65 | 200 | 1.0 | 9.0 | 0.00 | 0.00 | 0.00 | 61 | 1005.6 |
| 20260903113030 | 65 | 205 | 3.0 | 11.0 | 0.00 | 0.00 | 0.00 | 61 | 1005.6 |
| 20260903111533 | 65 | 200 | 5.0 | 11.0 | 0.00 | 0.00 | 0.00 | 61 | 1005.9 |
| 20260903110027 | 65 | 225 | 4.0 | 10.0 | 0.00 | 0.00 | 0.00 | 57 | 1005.9 |
| 20260903104527 | 65 | 205 | 3.0 | 9.0 | 0.00 | 0.00 | 0.00 | 61 | 1005.9 |
| 20260903103025 | 66 | 220 | 2.0 | 9.0 | 0.00 | 0.00 | 0.00 | 56 | 1006.0 |
| 20260903101527 | 66 | 200 | 3.0 | 9.0 | 0.00 | 0.00 | 0.00 | 57 | 1006.0 |
| 20260903100023 | 65 | 210 | 0.0 | 6.0 | 0.00 | 0.00 | 0.00 | 58 | 1006.1 |
| 20260903094521 | 65 | 200 | 0.0 | 0.0 | 0.00 | 0.00 | 0.00 | 57 | 1006.2 |
| 20260903093022 | 64 | 205 | 0.0 | 8.0 | 0.00 | 0.00 | 0.00 | 61 | 1006.4 |
| 20260903091512 | 62 | 210 | 0.0 | 0.0 | 0.00 | 0.00 | 0.00 | 65 | 1006.5 |
| 20260903090009 | 59 | 234 | 0.0 | 0.0 | 0.00 | 0.00 | 0.00 | 67 | 1006.6 |
| 20260903084518 | 59 | 237 | 0.0 | 0.0 | 0.00 | 0.00 | 0.00 | 65 | 1006.7 |
| 20260903083007 | 59 | 278 | 0.0 | 0.0 | 0.00 | 0.00 | 0.00 | 65 | 1006.7 |
| 20260903081504 | 59 | 335 | 0.0 | 0.0 | 0.00 | 0.00 | 0.00 | 64 | 1006.8 |
| 20260903080001 | 58 | 264 | 0.0 | 0.0 | 0.00 | 0.00 | 0.00 | 68 | 1006.8 |
| 20260903074559 | 57 | 332 | 0.0 | 5.0 | 0.00 | 0.00 | 0.00 | 66 | 1006.9 |
| 20260903073056 | 55 | 260 | 0.0 | 0.0 | 0.00 | 0.00 | 0.00 | 72 | 1007.0 |
| 20260903071556 | 55 | 265 | 0.0 | 0.0 | 0.00 | 0.00 | 0.00 | 69 | 1007.2 |
| 20260903070053 | 56 | 267 | 0.0 | 0.0 | 0.00 | 0.00 | 0.00 | 67 | 1007.3 |
| 20260903064553 | 56 | 275 | 0.0 | 6.0 | 0.00 | 0.00 | 0.00 | 70 | 1007.5 |
| 20260903063050 | 54 | 268 | 0.0 | 0.0 | 0.00 | 0.00 | 0.00 | 72 | 1007.4 |
| 20260903061542 | 54 | 252 | 0.0 | 0.0 | 0.00 | 0.00 | 0.00 | 73 | 1007.6 |
| 20260903060142 | 53 | 237 | 0.0 | 2.0 | 0.00 | 0.00 | 0.00 | 79 | 1007.6 |
| 20260903054539 | 51 | 235 | 0.0 | 0.0 | 0.00 | 0.00 | 0.00 | 82 | 1007.7 |
| 20260903053038 | 48 | 236 | 0.0 | 0.0 | 0.00 | 0.00 | 0.00 | 83 | 1007.6 |
| 20260903051536 | 46 | 235 | 0.0 | 0.0 | 0.00 | 0.00 | 0.00 | 86 | 1007.7 |
| 20260903050043 | 44 | 235 | 0.0 | 1.0 | 0.00 | 0.00 | 0.00 | 86 | 1007.8 |
| 20260903044537 | 43 | 235 | 0.0 | 0.0 | 0.00 | 0.00 | 0.00 | 85 | 1007.9 |
| 20260903043032 | 43 | 235 | 0.0 | 0.0 | 0.00 | 0.00 | 0.00 | 85 | 1007.9 |
| 20260903041539 | 44 | 235 | 0.0 | 2.0 | 0.00 | 0.00 | 0.00 | 85 | 1007.8 |
| 20260903040030 | 44 | 235 | 0.0 | 1.0 | 0.00 | 0.00 | 0.00 | 83 | 1007.8 |
| 20260903034534 | 45 | 235 | 0.0 | 0.0 | 0.00 | 0.00 | 0.00 | 81 | 1007.9 |
| 20260903033024 | 46 | 235 | 0.0 | 1.0 | 0.00 | 0.00 | 0.00 | 80 | 1007.9 |
| 20260903031526 | 46 | 235 | 0.0 | 0.0 | 0.00 | 0.00 | 0.00 | 79 | 1007.8 |
| 20260903030023 | 47 | 235 | 0.0 | 1.0 | 0.00 | 0.00 | 0.00 | 77 | 1007.9 |
| 20260903024523 | 47 | 236 | 0.0 | 2.0 | 0.00 | 0.00 | 0.00 | 76 | 1007.9 |
| 20260903023027 | 47 | 236 | 0.0 | 2.0 | 0.00 | 0.00 | 0.00 | 76 | 1007.8 |
| 20260903021521 | 46 | 233 | 0.0 | 3.0 | 0.00 | 0.00 | 0.00 | 78 | 1007.8 |
| 20260903020050 | 46 | 233 | 0.0 | 3.0 | 0.00 | 0.00 | 0.00 | 78 | 1007.8 |
| 20260903014515 | 47 | 232 | 0.0 | 1.0 | 0.00 | 0.00 | 0.00 | 78 | 1008.0 |
| 20260903013013 | 47 | 232 | 0.0 | 0.0 | 0.00 | 0.00 | 0.00 | 77 | 1008.1 |
| 20260903011510 | 48 | 232 | 0.0 | 0.0 | 0.00 | 0.00 | 0.00 | 76 | 1008.2 |
| 20260903010010 | 48 | 232 | 0.0 | 2.0 | 0.00 | 0.00 | 0.00 | 75 | 1008.2 |
| 20260903004508 | 48 | 230 | 0.0 | 2.0 | 0.00 | 0.00 | 0.00 | 75 | 1008.1 |
| 20260903003005 | 49 | 229 | 0.0 | 0.0 | 0.00 | 0.00 | 0.00 | 74 | 1008.3 |
| 20260903001504 | 49 | 229 | 0.0 | 3.0 | 0.00 | 0.00 | 0.00 | 73 | 1008.2 |
| 20260903000110 | 50 | 239 | 0.0 | 3.0 | 0.00 | 0.00 | 0.00 | 71 | 1008.1 |
| 20260902234559 | 50 | 239 | 0.0 | 5.0 | 0.00 | 0.00 | 0.00 | 71 | 1008.1 |
| 20260902233102 | 50 | 239 | 0.0 | 0.0 | 0.00 | 0.00 | 0.00 | 70 | 1008.1 |
| 20260902231556 | 51 | 239 | 0.0 | 3.0 | 0.00 | 0.00 | 0.00 | 68 | 1008.2 |
| 20260902230053 | 51 | 239 | 1.0 | 2.0 | 0.00 | 0.00 | 0.00 | 67 | 1008.3 |
| 20260902224550 | 52 | 239 | 0.0 | 0.0 | 0.00 | 0.00 | 0.00 | 66 | 1008.3 |
| 20260902223046 | 53 | 239 | 0.0 | 0.0 | 0.00 | 0.00 | 0.00 | 63 | 1008.3 |
| 20260902221606 | 53 | 237 | 0.0 | 4.0 | 0.00 | 0.00 | 0.00 | 62 | 1008.2 |
| 20260902220040 | 54 | 210 | 2.0 | 8.0 | 0.00 | 0.00 | 0.00 | 62 | 1008.0 |
| 20260902214539 | 54 | 227 | 2.0 | 7.0 | 0.00 | 0.00 | 0.00 | 61 | 1008.0 |
| 20260902213038 | 55 | 272 | 1.0 | 6.0 | 0.00 | 0.00 | 0.00 | 61 | 1008.1 |
| 20260902211537 | 55 | 310 | 1.0 | 6.0 | 0.00 | 0.00 | 0.00 | 60 | 1008.0 |
| 20260902210037 | 56 | 289 | 2.0 | 6.0 | 0.00 | 0.00 | 0.00 | 59 | 1008.0 |
| 20260902204550 | 56 | 251 | 4.0 | 12.0 | 0.00 | 0.00 | 0.00 | 59 | 1007.8 |
| 20260902203035 | 56 | 256 | 2.0 | 8.0 | 0.00 | 0.00 | 0.00 | 60 | 1007.9 |
| 20260902201540 | 57 | 291 | 1.0 | 5.0 | 0.00 | 0.00 | 0.00 | 59 | 1007.9 |
| 20260902200037 | 58 | 293 | 1.0 | 7.0 | 0.00 | 0.00 | 0.00 | 58 | 1007.9 |
| 20260902194549 | 58 | 279 | 2.0 | 5.0 | 0.00 | 0.00 | 0.00 | 58 | 1007.9 |
| 20260902193032 | 59 | 291 | 3.0 | 7.0 | 0.00 | 0.00 | 0.00 | 56 | 1007.7 |
| 20260902191542 | 59 | 301 | 3.0 | 9.0 | 0.00 | 0.00 | 0.00 | 58 | 1007.6 |
| 20260902190032 | 60 | 337 | 2.0 | 9.0 | 0.00 | 0.00 | 0.00 | 59 | 1007.3 |
| 20260902184533 | 60 | 303 | 1.0 | 4.0 | 0.00 | 0.00 | 0.00 | 60 | 1007.2 |
| 20260902183032 | 61 | 243 | 0.0 | 0.0 | 0.00 | 0.00 | 0.00 | 59 | 1007.1 |
| 20260902181530 | 63 | 279 | 0.0 | 0.0 | 0.00 | 0.00 | 0.00 | 58 | 1007.0 |
| 20260902180029 | 63 | 260 | 0.0 | 3.0 | 0.00 | 0.00 | 0.00 | 55 | 1007.0 |
| 20260902174532 | 64 | 289 | 0.0 | 6.0 | 0.00 | 0.00 | 0.00 | 53 | 1007.0 |
| 20260902173035 | 65 | 297 | 0.0 | 4.0 | 0.00 | 0.00 | 0.00 | 52 | 1006.9 |
| 20260902171526 | 65 | 285 | 1.0 | 8.0 | 0.00 | 0.00 | 0.00 | 51 | 1006.9 |
| 20260902170027 | 67 | 234 | 2.0 | 6.0 | 0.00 | 0.00 | 0.00 | 51 | 1006.9 |
| 20260902164526 | 68 | 289 | 0.0 | 7.0 | 0.00 | 0.00 | 0.00 | 48 | 1006.8 |
| 20260902163025 | 69 | 274 | 3.0 | 9.0 | 0.00 | 0.00 | 0.00 | 46 | 1006.7 |